�v������,,���ԉ��x,�����t���O,���Ԏ��x,�����t���O,��Q�����x,�����t���O,�q�������x,�����t���O,�g�C���󐅑�,�����t���O,,
2002/12/1,0:00:00,23.6,0 ,,0 ,22.2,0 ,22.6,0 ,9.7,0 ,,
2002/12/1,0:10:00,23.6,0 ,,0 ,22.2,0 ,22.6,0 ,9.8,0 ,,
2002/12/1,0:20:00,23.6,0 ,,0 ,22.2,0 ,22.6,0 ,9.9,0 ,,
2002/12/1,0:30:00,23.6,0 ,,0 ,22.2,0 ,22.6,0 ,10,0 ,,
2002/12/1,0:40:00,23.6,0 ,,0 ,22.2,0 ,22.6,0 ,10.1,0 ,,
2002/12/1,0:50:00,23.6,0 ,,0 ,22.2,0 ,22.6,0 ,10.2,0 ,,
2002/12/1,1:00:00,23.6,0 ,,0 ,22.2,0 ,22.5,0 ,10.3,0 ,,
2002/12/1,1:10:00,23.6,0 ,,0 ,22.2,0 ,22.5,0 ,10.4,0 ,,
2002/12/1,1:20:00,23.6,0 ,,0 ,22.2,0 ,22.5,0 ,10.5,0 ,,
2002/12/1,1:30:00,23.6,0 ,,0 ,22.2,0 ,22.5,0 ,9.5,0 ,,
2002/12/1,1:40:00,23.6,0 ,,0 ,22.2,0 ,22.5,0 ,9.5,0 ,,
2002/12/1,1:50:00,23.5,0 ,,0 ,22.2,0 ,22.5,0 ,9.6,0 ,,
2002/12/1,2:00:00,23.6,0 ,,0 ,22.2,0 ,22.5,0 ,8.9,0 ,,
2002/12/1,2:10:00,23.5,0 ,,0 ,22.2,0 ,22.5,0 ,8.8,0 ,,
2002/12/1,2:20:00,23.6,0 ,,0 ,22.2,0 ,22.5,0 ,8.9,0 ,,
2002/12/1,2:30:00,23.5,0 ,,0 ,22.2,0 ,22.5,0 ,9,0 ,,
2002/12/1,2:40:00,23.5,0 ,,0 ,22.2,0 ,22.5,0 ,9,0 ,,
2002/12/1,2:50:00,23.5,0 ,,0 ,22.1,0 ,22.5,0 ,9.1,0 ,,
2002/12/1,3:00:00,23.6,0 ,,0 ,22.1,0 ,22.5,0 ,9.2,0 ,,
2002/12/1,3:10:00,23.6,0 ,,0 ,22.1,0 ,22.5,0 ,9.3,0 ,,
2002/12/1,3:20:00,23.5,0 ,,0 ,22.1,0 ,22.5,0 ,9.1,0 ,,
2002/12/1,3:30:00,23.5,0 ,,0 ,22.1,0 ,22.5,0 ,9.1,0 ,,
2002/12/1,3:40:00,23.5,0 ,,0 ,22.1,0 ,22.4,0 ,9.1,0 ,,
2002/12/1,3:50:00,23.5,0 ,,0 ,22.1,0 ,22.4,0 ,9.2,0 ,,
2002/12/1,4:00:00,23.5,0 ,,0 ,22.1,0 ,22.4,0 ,9.3,0 ,,
2002/12/1,4:10:00,23.5,0 ,,0 ,22.1,0 ,22.4,0 ,9.4,0 ,,
2002/12/1,4:20:00,23.5,0 ,,0 ,22.1,0 ,22.4,0 ,9,0 ,,
2002/12/1,4:30:00,23.5,0 ,,0 ,22.1,0 ,22.4,0 ,9.1,0 ,,
2002/12/1,4:40:00,23.5,0 ,,0 ,22.1,0 ,22.4,0 ,9.1,0 ,,
2002/12/1,4:50:00,23.4,0 ,,0 ,22.1,0 ,22.3,0 ,9.2,0 ,,
2002/12/1,5:00:00,23.4,0 ,,0 ,22.1,0 ,22.3,0 ,9.3,0 ,,
2002/12/1,5:10:00,23.4,0 ,,0 ,22.1,0 ,22.3,0 ,9.4,0 ,,
2002/12/1,5:20:00,23.4,0 ,,0 ,22.1,0 ,22.3,0 ,9.5,0 ,,
2002/12/1,5:30:00,23.4,0 ,,0 ,22.1,0 ,22.3,0 ,9.5,0 ,,
2002/12/1,5:40:00,23.4,0 ,,0 ,22.1,0 ,22.3,0 ,9.6,0 ,,
2002/12/1,5:50:00,23.4,0 ,,0 ,22.1,0 ,22.3,0 ,9.3,0 ,,
2002/12/1,6:00:00,23.4,0 ,,0 ,22.1,0 ,22.2,0 ,8.2,0 ,,
2002/12/1,6:10:00,23.3,0 ,,0 ,22.1,0 ,22.1,0 ,8.3,0 ,,
2002/12/1,6:20:00,23.3,0 ,,0 ,22.1,0 ,22,0 ,8.4,0 ,,
2002/12/1,6:30:00,23.2,0 ,,0 ,22,0 ,21.9,0 ,8.5,0 ,,
2002/12/1,6:40:00,23.2,0 ,,0 ,22,0 ,21.9,0 ,8.6,0 ,,
2002/12/1,6:50:00,23.2,0 ,,0 ,22,0 ,21.9,0 ,8.8,0 ,,
2002/12/1,7:00:00,23.2,0 ,,0 ,22,0 ,22,0 ,8.8,0 ,,
2002/12/1,7:10:00,23.2,0 ,,0 ,22,0 ,22,0 ,8.8,0 ,,
2002/12/1,7:20:00,23.2,0 ,,0 ,22,0 ,22,0 ,8.9,0 ,,
2002/12/1,7:30:00,23.2,0 ,,0 ,22,0 ,22,0 ,9,0 ,,
2002/12/1,7:40:00,23.3,0 ,,0 ,22,0 ,22.1,0 ,8.8,0 ,,
2002/12/1,7:50:00,23.3,0 ,,0 ,22,0 ,22,0 ,7.7,0 ,,
2002/12/1,8:00:00,23.3,0 ,,0 ,22,0 ,22,0 ,7.8,0 ,,
2002/12/1,8:10:00,23.4,0 ,,0 ,22,0 ,22.1,0 ,7.9,0 ,,
2002/12/1,8:20:00,23.4,0 ,,0 ,22,0 ,22.1,0 ,8,0 ,,
2002/12/1,8:30:00,23.5,0 ,,0 ,22,0 ,22.2,0 ,8.1,0 ,,
2002/12/1,8:40:00,23.6,0 ,,0 ,21.9,0 ,22.2,0 ,8.2,0 ,,
2002/12/1,8:50:00,23.6,0 ,,0 ,21.9,0 ,22.3,0 ,8.3,0 ,,
2002/12/1,9:00:00,23.8,0 ,,0 ,21.9,0 ,22.4,0 ,8.7,0 ,,
2002/12/1,9:10:00,23.9,0 ,,0 ,21.9,0 ,22.6,0 ,8.6,0 ,,
2002/12/1,9:20:00,24,0 ,,0 ,21.9,0 ,22.7,0 ,8.6,0 ,,
2002/12/1,9:30:00,24.2,0 ,,0 ,21.9,0 ,22.8,0 ,7.8,0 ,,
2002/12/1,9:40:00,24.2,0 ,,0 ,21.9,0 ,22.9,0 ,7.9,0 ,,
2002/12/1,9:50:00,24.3,0 ,,0 ,21.9,0 ,22.9,0 ,8,0 ,,
2002/12/1,10:00:00,24.3,0 ,,0 ,21.9,0 ,23,0 ,8.1,0 ,,
2002/12/1,10:10:00,24.5,0 ,,0 ,22,0 ,23.1,0 ,8.2,0 ,,
2002/12/1,10:20:00,24.6,0 ,,0 ,22,0 ,23.2,0 ,8.3,0 ,,
2002/12/1,10:30:00,24.7,0 ,,0 ,22.1,0 ,23.3,0 ,8.5,0 ,,
2002/12/1,10:40:00,24.8,0 ,,0 ,22.1,0 ,23.4,0 ,8.6,0 ,,
2002/12/1,10:50:00,24.9,0 ,,0 ,22.2,0 ,23.6,0 ,8.7,0 ,,
2002/12/1,11:00:00,24.9,0 ,,0 ,22.2,0 ,23.7,0 ,8.8,0 ,,
2002/12/1,11:10:00,25,0 ,,0 ,22.3,0 ,23.8,0 ,8.8,0 ,,
2002/12/1,11:20:00,25.1,0 ,,0 ,22.4,0 ,23.9,0 ,8.9,0 ,,
2002/12/1,11:30:00,25.1,0 ,,0 ,22.4,0 ,24,0 ,9,0 ,,
2002/12/1,11:40:00,25.1,0 ,,0 ,22.5,0 ,24.2,0 ,9.1,0 ,,
2002/12/1,11:50:00,25.1,0 ,,0 ,22.5,0 ,24.3,0 ,8.9,0 ,,
2002/12/1,12:00:00,25,0 ,,0 ,22.6,0 ,24.4,0 ,8.2,0 ,,
2002/12/1,12:10:00,25,0 ,,0 ,22.7,0 ,24.5,0 ,7.8,0 ,,
2002/12/1,12:20:00,25,0 ,,0 ,22.7,0 ,24.6,0 ,7.9,0 ,,
2002/12/1,12:30:00,25.1,0 ,,0 ,22.8,0 ,24.7,0 ,8,0 ,,
2002/12/1,12:40:00,25.2,0 ,,0 ,22.8,0 ,24.8,0 ,8.1,0 ,,
2002/12/1,12:50:00,25.4,0 ,,0 ,22.9,0 ,24.9,0 ,8.2,0 ,,
2002/12/1,13:00:00,25.5,0 ,,0 ,22.9,0 ,25,0 ,8.3,0 ,,
2002/12/1,13:10:00,25.6,0 ,,0 ,22.9,0 ,25.1,0 ,8.4,0 ,,
2002/12/1,13:20:00,25.8,0 ,,0 ,23,0 ,25.2,0 ,8.5,0 ,,
2002/12/1,13:30:00,25.9,0 ,,0 ,23,0 ,25.3,0 ,8.6,0 ,,
2002/12/1,13:40:00,26,0 ,,0 ,23,0 ,25.4,0 ,8.7,0 ,,
2002/12/1,13:50:00,26.2,0 ,,0 ,23.1,0 ,25.5,0 ,8.8,0 ,,
2002/12/1,14:00:00,26.4,0 ,,0 ,23.1,0 ,25.9,0 ,8.9,0 ,,
2002/12/1,14:10:00,26.6,0 ,,0 ,23.2,0 ,26.6,0 ,9,0 ,,
2002/12/1,14:20:00,26.6,0 ,,0 ,23.2,0 ,26.3,0 ,9.1,0 ,,
2002/12/1,14:30:00,26.6,0 ,,0 ,23.3,0 ,26.2,0 ,9.2,0 ,,
2002/12/1,14:40:00,26.6,0 ,,0 ,23.3,0 ,26.1,0 ,9.3,0 ,,
2002/12/1,14:50:00,26.7,0 ,,0 ,23.3,0 ,26.1,0 ,9.4,0 ,,
2002/12/1,15:00:00,26.8,0 ,,0 ,23.3,0 ,26,0 ,9.5,0 ,,
2002/12/1,15:10:00,26.8,0 ,,0 ,23.4,0 ,25.9,0 ,9.6,0 ,,
2002/12/1,15:20:00,26.7,0 ,,0 ,23.4,0 ,25.9,0 ,9.7,0 ,,
2002/12/1,15:30:00,26.5,0 ,,0 ,23.4,0 ,25.7,0 ,9.8,0 ,,
2002/12/1,15:40:00,26.2,0 ,,0 ,23.4,0 ,25.6,0 ,9.9,0 ,,
2002/12/1,15:50:00,26,0 ,,0 ,23.4,0 ,25.5,0 ,10,0 ,,
2002/12/1,16:00:00,25.7,0 ,,0 ,23.4,0 ,25.4,0 ,10.1,0 ,,
2002/12/1,16:10:00,25.5,0 ,,0 ,23.3,0 ,25.3,0 ,10.2,0 ,,
2002/12/1,16:20:00,25.4,0 ,,0 ,23.3,0 ,25.1,0 ,10.4,0 ,,
2002/12/1,16:30:00,25.2,0 ,,0 ,23.3,0 ,25,0 ,10.5,0 ,,
2002/12/1,16:40:00,25,0 ,,0 ,23.3,0 ,24.8,0 ,9.4,0 ,,
2002/12/1,16:50:00,24.8,0 ,,0 ,23.3,0 ,24.7,0 ,9.5,0 ,,
2002/12/1,17:00:00,24.7,0 ,,0 ,23.2,0 ,24.6,0 ,9.6,0 ,,
2002/12/1,17:10:00,24.5,0 ,,0 ,23.2,0 ,24.5,0 ,9.6,0 ,,
2002/12/1,17:20:00,24.5,0 ,,0 ,23.1,0 ,24.4,0 ,9.7,0 ,,
2002/12/1,17:30:00,24.4,0 ,,0 ,23.1,0 ,24.3,0 ,9.8,0 ,,
2002/12/1,17:40:00,24.4,0 ,,0 ,23,0 ,24.3,0 ,9.9,0 ,,
2002/12/1,17:50:00,24.4,0 ,,0 ,23,0 ,24.3,0 ,10,0 ,,
2002/12/1,18:00:00,24.3,0 ,,0 ,23,0 ,24.2,0 ,9.1,0 ,,
2002/12/1,18:10:00,24.2,0 ,,0 ,23,0 ,24.1,0 ,8.3,0 ,,
2002/12/1,18:20:00,24.1,0 ,,0 ,23,0 ,24.1,0 ,8.4,0 ,,
2002/12/1,18:30:00,24.3,0 ,,0 ,23,0 ,24.1,0 ,8.5,0 ,,
2002/12/1,18:40:00,24.6,0 ,,0 ,23,0 ,24.1,0 ,8.6,0 ,,
2002/12/1,18:50:00,24.8,0 ,,0 ,23,0 ,24.2,0 ,8.7,0 ,,
2002/12/1,19:00:00,24.9,0 ,,0 ,23,0 ,24.2,0 ,8.8,0 ,,
2002/12/1,19:10:00,25,0 ,,0 ,23,0 ,24.2,0 ,8.9,0 ,,
2002/12/1,19:20:00,25,0 ,,0 ,23.1,0 ,24.2,0 ,9,0 ,,
2002/12/1,19:30:00,25,0 ,,0 ,23.1,0 ,24.2,0 ,9.1,0 ,,
2002/12/1,19:40:00,25,0 ,,0 ,23.1,0 ,24.2,0 ,8.8,0 ,,
2002/12/1,19:50:00,25,0 ,,0 ,23.1,0 ,24.2,0 ,8.9,0 ,,
2002/12/1,20:00:00,24.9,0 ,,0 ,23.1,0 ,24.2,0 ,8.5,0 ,,
2002/12/1,20:10:00,24.8,0 ,,0 ,23.1,0 ,24.2,0 ,8.5,0 ,,
2002/12/1,20:20:00,24.7,0 ,,0 ,23.1,0 ,24.1,0 ,8.6,0 ,,
2002/12/1,20:30:00,24.5,0 ,,0 ,23.1,0 ,24,0 ,8.7,0 ,,
2002/12/1,20:40:00,24.5,0 ,,0 ,23,0 ,24,0 ,8.8,0 ,,
2002/12/1,20:50:00,24.4,0 ,,0 ,23,0 ,24,0 ,8.5,0 ,,
2002/12/1,21:00:00,24.4,0 ,,0 ,23,0 ,23.9,0 ,8.6,0 ,,
2002/12/1,21:10:00,24.3,0 ,,0 ,23,0 ,23.9,0 ,8.7,0 ,,
2002/12/1,21:20:00,24.3,0 ,,0 ,23,0 ,23.9,0 ,8.7,0 ,,
2002/12/1,21:30:00,24.2,0 ,,0 ,23,0 ,23.8,0 ,8.8,0 ,,
2002/12/1,21:40:00,24.2,0 ,,0 ,23,0 ,23.8,0 ,8.9,0 ,,
2002/12/1,21:50:00,24.1,0 ,,0 ,23,0 ,23.8,0 ,9,0 ,,
2002/12/1,22:00:00,24.1,0 ,,0 ,23,0 ,23.8,0 ,9.1,0 ,,
2002/12/1,22:10:00,24.1,0 ,,0 ,23,0 ,23.7,0 ,9.2,0 ,,
2002/12/1,22:20:00,24.1,0 ,,0 ,23,0 ,23.7,0 ,9.3,0 ,,
2002/12/1,22:30:00,24.1,0 ,,0 ,23,0 ,23.7,0 ,9.4,0 ,,
2002/12/1,22:40:00,24.1,0 ,,0 ,23,0 ,23.7,0 ,9.5,0 ,,
2002/12/1,22:50:00,24.1,0 ,,0 ,23,0 ,23.6,0 ,9.6,0 ,,
2002/12/1,23:00:00,24,0 ,,0 ,23,0 ,23.6,0 ,9.7,0 ,,
2002/12/1,23:10:00,24.1,0 ,,0 ,23,0 ,23.6,0 ,9.8,0 ,,
2002/12/1,23:20:00,24.1,0 ,,0 ,22.9,0 ,23.6,0 ,9.9,0 ,,
2002/12/1,23:30:00,24.1,0 ,,0 ,22.9,0 ,23.5,0 ,10,0 ,,
2002/12/1,23:40:00,24.1,0 ,,0 ,22.9,0 ,23.5,0 ,10.1,0 ,,
2002/12/1,23:50:00,24,0 ,,0 ,22.9,0 ,23.5,0 ,10.2,0 ,,
2002/12/2,0:00:00,24,0 ,,0 ,22.9,0 ,23.5,0 ,10.3,0 ,,
2002/12/2,0:10:00,24,0 ,,0 ,22.9,0 ,23.4,0 ,10.4,0 ,,
2002/12/2,0:20:00,24,0 ,,0 ,22.8,0 ,23.4,0 ,10.6,0 ,,
2002/12/2,0:30:00,24,0 ,,0 ,22.8,0 ,23.4,0 ,10.7,0 ,,
2002/12/2,0:40:00,24,0 ,,0 ,22.8,0 ,23.4,0 ,10.8,0 ,,
2002/12/2,0:50:00,24,0 ,,0 ,22.8,0 ,23.4,0 ,10.9,0 ,,
2002/12/2,1:00:00,24,0 ,,0 ,22.8,0 ,23.3,0 ,11,0 ,,
2002/12/2,1:10:00,24,0 ,,0 ,22.7,0 ,23.3,0 ,11.1,0 ,,
2002/12/2,1:20:00,24,0 ,,0 ,22.7,0 ,23.3,0 ,11.2,0 ,,
2002/12/2,1:30:00,24,0 ,,0 ,22.7,0 ,23.3,0 ,11.3,0 ,,
2002/12/2,1:40:00,24,0 ,,0 ,22.7,0 ,23.3,0 ,11.4,0 ,,
2002/12/2,1:50:00,24,0 ,,0 ,22.6,0 ,23.3,0 ,11.5,0 ,,
2002/12/2,2:00:00,24,0 ,,0 ,22.6,0 ,23.2,0 ,9.9,0 ,,
2002/12/2,2:10:00,24,0 ,,0 ,22.6,0 ,23.2,0 ,9.9,0 ,,
2002/12/2,2:20:00,24,0 ,,0 ,22.6,0 ,23.2,0 ,10,0 ,,
2002/12/2,2:30:00,24,0 ,,0 ,22.6,0 ,23.2,0 ,10.1,0 ,,
2002/12/2,2:40:00,24,0 ,,0 ,22.6,0 ,23.2,0 ,9.2,0 ,,
2002/12/2,2:50:00,24,0 ,,0 ,22.5,0 ,23.2,0 ,9.2,0 ,,
2002/12/2,3:00:00,24,0 ,,0 ,22.5,0 ,23.2,0 ,9.3,0 ,,
2002/12/2,3:10:00,24,0 ,,0 ,22.5,0 ,23.2,0 ,9.4,0 ,,
2002/12/2,3:20:00,23.9,0 ,,0 ,22.5,0 ,23.1,0 ,9.5,0 ,,
2002/12/2,3:30:00,24,0 ,,0 ,22.5,0 ,23.1,0 ,9.6,0 ,,
2002/12/2,3:40:00,23.9,0 ,,0 ,22.5,0 ,23.1,0 ,9.7,0 ,,
2002/12/2,3:50:00,24,0 ,,0 ,22.4,0 ,23.1,0 ,9.8,0 ,,
2002/12/2,4:00:00,24,0 ,,0 ,22.4,0 ,23.1,0 ,9.8,0 ,,
2002/12/2,4:10:00,23.9,0 ,,0 ,22.4,0 ,23.1,0 ,9.9,0 ,,
2002/12/2,4:20:00,23.9,0 ,,0 ,22.4,0 ,23.1,0 ,10,0 ,,
2002/12/2,4:30:00,23.9,0 ,,0 ,22.3,0 ,23.1,0 ,10.2,0 ,,
2002/12/2,4:40:00,23.9,0 ,,0 ,22.3,0 ,23.1,0 ,10.3,0 ,,
2002/12/2,4:50:00,23.9,0 ,,0 ,22.3,0 ,23.1,0 ,10.4,0 ,,
2002/12/2,5:00:00,23.9,0 ,,0 ,22.3,0 ,23,0 ,10.5,0 ,,
2002/12/2,5:10:00,23.9,0 ,,0 ,22.3,0 ,23,0 ,9.6,0 ,,
2002/12/2,5:20:00,23.9,0 ,,0 ,22.3,0 ,23,0 ,9.7,0 ,,
2002/12/2,5:30:00,23.9,0 ,,0 ,22.3,0 ,23,0 ,9.7,0 ,,
2002/12/2,5:40:00,23.9,0 ,,0 ,22.3,0 ,23,0 ,9.8,0 ,,
2002/12/2,5:50:00,23.9,0 ,,0 ,22.3,0 ,23,0 ,9.9,0 ,,
2002/12/2,6:00:00,23.9,0 ,,0 ,22.2,0 ,23,0 ,10,0 ,,
2002/12/2,6:10:00,23.9,0 ,,0 ,22.2,0 ,23,0 ,10.1,0 ,,
2002/12/2,6:20:00,24,0 ,,0 ,22.3,0 ,23.1,0 ,9,0 ,,
2002/12/2,6:30:00,24,0 ,,0 ,22.3,0 ,23.1,0 ,8.6,0 ,,
2002/12/2,6:40:00,24,0 ,,0 ,22.3,0 ,23.1,0 ,8.6,0 ,,
2002/12/2,6:50:00,24,0 ,,0 ,22.2,0 ,23.1,0 ,8.7,0 ,,
2002/12/2,7:00:00,24,0 ,,0 ,22.2,0 ,23.1,0 ,8.8,0 ,,
2002/12/2,7:10:00,24,0 ,,0 ,22.2,0 ,23.1,0 ,8.7,0 ,,
2002/12/2,7:20:00,24,0 ,,0 ,22.2,0 ,23.1,0 ,8.3,0 ,,
2002/12/2,7:30:00,23.9,0 ,,0 ,22.2,0 ,23.1,0 ,8,0 ,,
2002/12/2,7:40:00,23.9,0 ,,0 ,22.2,0 ,23.1,0 ,8,0 ,,
2002/12/2,7:50:00,23.9,0 ,,0 ,22.2,0 ,23.1,0 ,8.1,0 ,,
2002/12/2,8:00:00,23.9,0 ,,0 ,22.1,0 ,23.1,0 ,8,0 ,,
2002/12/2,8:10:00,23.9,0 ,,0 ,22.1,0 ,23.1,0 ,8.1,0 ,,
2002/12/2,8:20:00,23.9,0 ,,0 ,22.1,0 ,23.1,0 ,8.2,0 ,,
2002/12/2,8:30:00,24,0 ,,0 ,22.1,0 ,23.1,0 ,8.2,0 ,,
2002/12/2,8:40:00,24.1,0 ,,0 ,22,0 ,23.2,0 ,8.3,0 ,,
2002/12/2,8:50:00,24.1,0 ,,0 ,22,0 ,23.2,0 ,8.5,0 ,,
2002/12/2,9:00:00,24.1,0 ,,0 ,22,0 ,23.2,0 ,8.6,0 ,,
2002/12/2,9:10:00,24.1,0 ,,0 ,22,0 ,23.2,0 ,8.8,0 ,,
2002/12/2,9:20:00,24.1,0 ,,0 ,22,0 ,23.2,0 ,8.7,0 ,,
2002/12/2,9:30:00,24.1,0 ,,0 ,22,0 ,23.2,0 ,8.8,0 ,,
2002/12/2,9:40:00,24,0 ,,0 ,22,0 ,23.2,0 ,8.9,0 ,,
2002/12/2,9:50:00,24,0 ,,0 ,22,0 ,23.1,0 ,9,0 ,,
2002/12/2,10:00:00,24,0 ,,0 ,22,0 ,23.1,0 ,9.1,0 ,,
2002/12/2,10:10:00,24,0 ,,0 ,22,0 ,23.1,0 ,9.2,0 ,,
2002/12/2,10:20:00,24,0 ,,0 ,22,0 ,23.1,0 ,9.3,0 ,,
2002/12/2,10:30:00,24,0 ,,0 ,22,0 ,23.1,0 ,9.4,0 ,,
2002/12/2,10:40:00,24,0 ,,0 ,22,0 ,23.1,0 ,8.9,0 ,,
2002/12/2,10:50:00,24,0 ,,0 ,22,0 ,23.1,0 ,8.9,0 ,,
2002/12/2,11:00:00,24,0 ,,0 ,22,0 ,23.1,0 ,9,0 ,,
2002/12/2,11:10:00,24,0 ,,0 ,22,0 ,23.1,0 ,9.1,0 ,,
2002/12/2,11:20:00,24,0 ,,0 ,22,0 ,23.1,0 ,9.1,0 ,,
2002/12/2,11:30:00,24,0 ,,0 ,22,0 ,23.1,0 ,9.2,0 ,,
2002/12/2,11:40:00,24,0 ,,0 ,22,0 ,23,0 ,9.4,0 ,,
2002/12/2,11:50:00,24,0 ,,0 ,22,0 ,23,0 ,8.9,0 ,,
2002/12/2,12:00:00,24,0 ,,0 ,22,0 ,23,0 ,9,0 ,,
2002/12/2,12:10:00,24.1,0 ,,0 ,22,0 ,23.1,0 ,9,0 ,,
2002/12/2,12:20:00,24.2,0 ,,0 ,22,0 ,23.2,0 ,9.1,0 ,,
2002/12/2,12:30:00,24.3,0 ,,0 ,22,0 ,23.3,0 ,9.2,0 ,,
2002/12/2,12:40:00,24.4,0 ,,0 ,22,0 ,23.3,0 ,9.3,0 ,,
2002/12/2,12:50:00,24.4,0 ,,0 ,22,0 ,23.4,0 ,9.4,0 ,,
2002/12/2,13:00:00,24.4,0 ,,0 ,22,0 ,23.4,0 ,9.5,0 ,,
2002/12/2,13:10:00,24.4,0 ,,0 ,22.1,0 ,23.5,0 ,8.9,0 ,,
2002/12/2,13:20:00,24.5,0 ,,0 ,22.1,0 ,23.6,0 ,9,0 ,,
2002/12/2,13:30:00,24.5,0 ,,0 ,22.1,0 ,23.6,0 ,9,0 ,,
2002/12/2,13:40:00,24.5,0 ,,0 ,22.1,0 ,23.5,0 ,8.8,0 ,,
2002/12/2,13:50:00,24.4,0 ,,0 ,22.1,0 ,23.5,0 ,8.6,0 ,,
2002/12/2,14:00:00,24.4,0 ,,0 ,22.1,0 ,23.5,0 ,8.7,0 ,,
2002/12/2,14:10:00,24.3,0 ,,0 ,22.1,0 ,23.5,0 ,8.8,0 ,,
2002/12/2,14:20:00,24.3,0 ,,0 ,22.1,0 ,23.5,0 ,8.9,0 ,,
2002/12/2,14:30:00,24.3,0 ,,0 ,22.1,0 ,23.5,0 ,9,0 ,,
2002/12/2,14:40:00,24.3,0 ,,0 ,22.1,0 ,23.5,0 ,9.1,0 ,,
2002/12/2,14:50:00,24.4,0 ,,0 ,22.1,0 ,23.5,0 ,9.2,0 ,,
2002/12/2,15:00:00,24.5,0 ,,0 ,22.1,0 ,23.6,0 ,9.3,0 ,,
2002/12/2,15:10:00,24.5,0 ,,0 ,22.2,0 ,23.6,0 ,9.4,0 ,,
2002/12/2,15:20:00,24.5,0 ,,0 ,22.2,0 ,23.6,0 ,9.5,0 ,,
2002/12/2,15:30:00,24.4,0 ,,0 ,22.2,0 ,23.5,0 ,9,0 ,,
2002/12/2,15:40:00,24.4,0 ,,0 ,22.2,0 ,23.5,0 ,9,0 ,,
2002/12/2,15:50:00,24.3,0 ,,0 ,22.2,0 ,23.5,0 ,9.1,0 ,,
2002/12/2,16:00:00,24.3,0 ,,0 ,22.2,0 ,23.5,0 ,9.2,0 ,,
2002/12/2,16:10:00,24.2,0 ,,0 ,22.2,0 ,23.4,0 ,9.3,0 ,,
2002/12/2,16:20:00,23.9,0 ,,0 ,22.1,0 ,23.2,0 ,9.3,0 ,,
2002/12/2,16:30:00,23.6,0 ,,0 ,22.1,0 ,23.1,0 ,9.4,0 ,,
2002/12/2,16:40:00,23.3,0 ,,0 ,22,0 ,23,0 ,9.5,0 ,,
2002/12/2,16:50:00,23.1,0 ,,0 ,21.9,0 ,22.9,0 ,9,0 ,,
2002/12/2,17:00:00,22.9,0 ,,0 ,21.9,0 ,22.8,0 ,8.9,0 ,,
2002/12/2,17:10:00,22.7,0 ,,0 ,21.8,0 ,22.7,0 ,9,0 ,,
2002/12/2,17:20:00,22.5,0 ,,0 ,21.7,0 ,22.6,0 ,9.1,0 ,,
2002/12/2,17:30:00,22.4,0 ,,0 ,21.6,0 ,22.5,0 ,9.2,0 ,,
2002/12/2,17:40:00,22.2,0 ,,0 ,21.5,0 ,22.4,0 ,9.3,0 ,,
2002/12/2,17:50:00,22.1,0 ,,0 ,21.5,0 ,22.3,0 ,9.3,0 ,,
2002/12/2,18:00:00,22,0 ,,0 ,21.4,0 ,22.2,0 ,9.4,0 ,,
2002/12/2,18:10:00,21.9,0 ,,0 ,21.3,0 ,22.2,0 ,9.5,0 ,,
2002/12/2,18:20:00,21.9,0 ,,0 ,21.2,0 ,22.1,0 ,9.6,0 ,,
2002/12/2,18:30:00,22.1,0 ,,0 ,21.2,0 ,22.1,0 ,8.9,0 ,,
2002/12/2,18:40:00,22.4,0 ,,0 ,21.1,0 ,22.1,0 ,9,0 ,,
2002/12/2,18:50:00,22.6,0 ,,0 ,21.2,0 ,22.2,0 ,9.1,0 ,,
2002/12/2,19:00:00,22.8,0 ,,0 ,21.2,0 ,22.2,0 ,9.1,0 ,,
2002/12/2,19:10:00,22.9,0 ,,0 ,21.2,0 ,22.2,0 ,9.2,0 ,,
2002/12/2,19:20:00,23,0 ,,0 ,21.2,0 ,22.2,0 ,8.4,0 ,,
2002/12/2,19:30:00,23.1,0 ,,0 ,21.2,0 ,22.2,0 ,7.5,0 ,,
2002/12/2,19:40:00,23.1,0 ,,0 ,21.2,0 ,22.2,0 ,7.6,0 ,,
2002/12/2,19:50:00,23.2,0 ,,0 ,21.2,0 ,22.3,0 ,7.7,0 ,,
2002/12/2,20:00:00,23.2,0 ,,0 ,21.3,0 ,22.3,0 ,7.8,0 ,,
2002/12/2,20:10:00,23.3,0 ,,0 ,21.3,0 ,22.3,0 ,7.9,0 ,,
2002/12/2,20:20:00,23.3,0 ,,0 ,21.3,0 ,22.3,0 ,8,0 ,,
2002/12/2,20:30:00,23.3,0 ,,0 ,21.4,0 ,22.4,0 ,8.1,0 ,,
2002/12/2,20:40:00,23.4,0 ,,0 ,21.4,0 ,22.4,0 ,8.2,0 ,,
2002/12/2,20:50:00,23.4,0 ,,0 ,21.4,0 ,22.4,0 ,8.2,0 ,,
2002/12/2,21:00:00,23.4,0 ,,0 ,21.5,0 ,22.4,0 ,8,0 ,,
2002/12/2,21:10:00,23.4,0 ,,0 ,21.5,0 ,22.4,0 ,8,0 ,,
2002/12/2,21:20:00,23.4,0 ,,0 ,21.6,0 ,22.4,0 ,8.1,0 ,,
2002/12/2,21:30:00,23.4,0 ,,0 ,21.6,0 ,22.4,0 ,8.2,0 ,,
2002/12/2,21:40:00,23.4,0 ,,0 ,21.7,0 ,22.4,0 ,8.3,0 ,,
2002/12/2,21:50:00,23.3,0 ,,0 ,21.7,0 ,22.4,0 ,8.4,0 ,,
2002/12/2,22:00:00,23.4,0 ,,0 ,21.8,0 ,22.4,0 ,8.5,0 ,,
2002/12/2,22:10:00,23.3,0 ,,0 ,21.8,0 ,22.4,0 ,8.6,0 ,,
2002/12/2,22:20:00,23.3,0 ,,0 ,21.8,0 ,22.4,0 ,8.7,0 ,,
2002/12/2,22:30:00,23.3,0 ,,0 ,21.9,0 ,22.4,0 ,8.8,0 ,,
2002/12/2,22:40:00,23.4,0 ,,0 ,21.9,0 ,22.4,0 ,8.7,0 ,,
2002/12/2,22:50:00,23.4,0 ,,0 ,21.9,0 ,22.4,0 ,8.8,0 ,,
2002/12/2,23:00:00,23.4,0 ,,0 ,21.9,0 ,22.4,0 ,8.8,0 ,,
2002/12/2,23:10:00,23.4,0 ,,0 ,21.9,0 ,22.4,0 ,8.9,0 ,,
2002/12/2,23:20:00,23.4,0 ,,0 ,21.9,0 ,22.4,0 ,9,0 ,,
2002/12/2,23:30:00,23.4,0 ,,0 ,21.9,0 ,22.4,0 ,9.1,0 ,,
2002/12/2,23:40:00,23.4,0 ,,0 ,21.9,0 ,22.4,0 ,8,0 ,,
2002/12/2,23:50:00,23.4,0 ,,0 ,21.9,0 ,22.4,0 ,8.1,0 ,,
2002/12/3,0:00:00,23.4,0 ,,0 ,21.9,0 ,22.4,0 ,8.1,0 ,,
2002/12/3,0:10:00,23.4,0 ,,0 ,21.9,0 ,22.4,0 ,8.2,0 ,,
2002/12/3,0:20:00,23.3,0 ,,0 ,21.9,0 ,22.4,0 ,8.3,0 ,,
2002/12/3,0:30:00,23.3,0 ,,0 ,21.9,0 ,22.4,0 ,8.4,0 ,,
2002/12/3,0:40:00,23.3,0 ,,0 ,22,0 ,22.4,0 ,8.5,0 ,,
2002/12/3,0:50:00,23.3,0 ,,0 ,22,0 ,22.4,0 ,8.6,0 ,,
2002/12/3,1:00:00,23.3,0 ,,0 ,22,0 ,22.4,0 ,8.7,0 ,,
2002/12/3,1:10:00,23.3,0 ,,0 ,22,0 ,22.3,0 ,8.8,0 ,,
2002/12/3,1:20:00,23.2,0 ,,0 ,22,0 ,22.3,0 ,8.9,0 ,,
2002/12/3,1:30:00,23.2,0 ,,0 ,22,0 ,22.3,0 ,9,0 ,,
2002/12/3,1:40:00,23.2,0 ,,0 ,22,0 ,22.2,0 ,9,0 ,,
2002/12/3,1:50:00,23.1,0 ,,0 ,22,0 ,22.2,0 ,9.1,0 ,,
2002/12/3,2:00:00,23.1,0 ,,0 ,22.1,0 ,22.2,0 ,9.2,0 ,,
2002/12/3,2:10:00,23.1,0 ,,0 ,22.1,0 ,22.1,0 ,9.3,0 ,,
2002/12/3,2:20:00,23.1,0 ,,0 ,22.1,0 ,22.1,0 ,9,0 ,,
2002/12/3,2:30:00,23,0 ,,0 ,22.1,0 ,22.1,0 ,9.1,0 ,,
2002/12/3,2:40:00,23,0 ,,0 ,22.1,0 ,22.1,0 ,9.1,0 ,,
2002/12/3,2:50:00,23,0 ,,0 ,22.1,0 ,22.1,0 ,9.2,0 ,,
2002/12/3,3:00:00,23,0 ,,0 ,22.1,0 ,22,0 ,9.3,0 ,,
2002/12/3,3:10:00,22.9,0 ,,0 ,22.1,0 ,22,0 ,9.4,0 ,,
2002/12/3,3:20:00,22.9,0 ,,0 ,22.2,0 ,22,0 ,9.4,0 ,,
2002/12/3,3:30:00,22.9,0 ,,0 ,22.2,0 ,21.9,0 ,9.5,0 ,,
2002/12/3,3:40:00,22.9,0 ,,0 ,22.2,0 ,21.9,0 ,9.6,0 ,,
2002/12/3,3:50:00,22.8,0 ,,0 ,22.2,0 ,21.9,0 ,9.7,0 ,,
2002/12/3,4:00:00,22.8,0 ,,0 ,22.2,0 ,21.9,0 ,9.8,0 ,,
2002/12/3,4:10:00,22.8,0 ,,0 ,22.2,0 ,21.8,0 ,9.9,0 ,,
2002/12/3,4:20:00,22.8,0 ,,0 ,22.2,0 ,21.8,0 ,9.9,0 ,,
2002/12/3,4:30:00,22.7,0 ,,0 ,22.2,0 ,21.8,0 ,9.3,0 ,,
2002/12/3,4:40:00,22.7,0 ,,0 ,22.2,0 ,21.8,0 ,9.3,0 ,,
2002/12/3,4:50:00,22.7,0 ,,0 ,22.2,0 ,21.7,0 ,9.4,0 ,,
2002/12/3,5:00:00,22.7,0 ,,0 ,22.2,0 ,21.7,0 ,9.5,0 ,,
2002/12/3,5:10:00,22.7,0 ,,0 ,22.2,0 ,21.7,0 ,8,0 ,,
2002/12/3,5:20:00,22.6,0 ,,0 ,22.2,0 ,21.6,0 ,8,0 ,,
2002/12/3,5:30:00,22.6,0 ,,0 ,22.2,0 ,21.5,0 ,8.1,0 ,,
2002/12/3,5:40:00,22.6,0 ,,0 ,22.2,0 ,21.4,0 ,8.2,0 ,,
2002/12/3,5:50:00,22.5,0 ,,0 ,22.2,0 ,21.4,0 ,8.3,0 ,,
2002/12/3,6:00:00,22.4,0 ,,0 ,22.2,0 ,21.3,0 ,8.4,0 ,,
2002/12/3,6:10:00,22.4,0 ,,0 ,22.1,0 ,21.3,0 ,8.5,0 ,,
2002/12/3,6:20:00,22.5,0 ,,0 ,22.1,0 ,21.4,0 ,8.5,0 ,,
2002/12/3,6:30:00,22.5,0 ,,0 ,22.1,0 ,21.4,0 ,8.3,0 ,,
2002/12/3,6:40:00,22.6,0 ,,0 ,22.1,0 ,21.4,0 ,8.3,0 ,,
2002/12/3,6:50:00,22.6,0 ,,0 ,22,0 ,21.5,0 ,8.3,0 ,,
2002/12/3,7:00:00,22.6,0 ,,0 ,21.9,0 ,21.5,0 ,8.2,0 ,,
2002/12/3,7:10:00,22.6,0 ,,0 ,21.9,0 ,21.5,0 ,8.1,0 ,,
2002/12/3,7:20:00,22.6,0 ,,0 ,21.9,0 ,21.5,0 ,8.2,0 ,,
2002/12/3,7:30:00,22.6,0 ,,0 ,21.8,0 ,21.4,0 ,7.7,0 ,,
2002/12/3,7:40:00,22.6,0 ,,0 ,21.8,0 ,21.4,0 ,7.7,0 ,,
2002/12/3,7:50:00,22.6,0 ,,0 ,21.8,0 ,21.4,0 ,7.8,0 ,,
2002/12/3,8:00:00,22.7,0 ,,0 ,21.7,0 ,21.5,0 ,7.9,0 ,,
2002/12/3,8:10:00,22.7,0 ,,0 ,21.7,0 ,21.6,0 ,8,0 ,,
2002/12/3,8:20:00,22.7,0 ,,0 ,21.6,0 ,21.6,0 ,8.1,0 ,,
2002/12/3,8:30:00,22.8,0 ,,0 ,21.6,0 ,21.7,0 ,8.4,0 ,,
2002/12/3,8:40:00,22.9,0 ,,0 ,21.6,0 ,21.8,0 ,8.5,0 ,,
2002/12/3,8:50:00,23,0 ,,0 ,21.6,0 ,21.8,0 ,8,0 ,,
2002/12/3,9:00:00,23.1,0 ,,0 ,21.5,0 ,21.9,0 ,8,0 ,,
2002/12/3,9:10:00,23.2,0 ,,0 ,21.5,0 ,22,0 ,8.1,0 ,,
2002/12/3,9:20:00,23.3,0 ,,0 ,21.5,0 ,22.1,0 ,8.2,0 ,,
2002/12/3,9:30:00,23.4,0 ,,0 ,21.5,0 ,22.1,0 ,8.3,0 ,,
2002/12/3,9:40:00,23.4,0 ,,0 ,21.5,0 ,22.2,0 ,8.4,0 ,,
2002/12/3,9:50:00,23.6,0 ,,0 ,21.5,0 ,22.3,0 ,8.5,0 ,,
2002/12/3,10:00:00,23.7,0 ,,0 ,21.6,0 ,22.4,0 ,8.6,0 ,,
2002/12/3,10:10:00,23.8,0 ,,0 ,21.6,0 ,22.5,0 ,8.6,0 ,,
2002/12/3,10:20:00,23.9,0 ,,0 ,21.6,0 ,22.6,0 ,8.8,0 ,,
2002/12/3,10:30:00,24,0 ,,0 ,21.6,0 ,22.7,0 ,8.9,0 ,,
2002/12/3,10:40:00,24.1,0 ,,0 ,21.7,0 ,22.8,0 ,9,0 ,,
2002/12/3,10:50:00,24.2,0 ,,0 ,21.7,0 ,22.9,0 ,9,0 ,,
2002/12/3,11:00:00,24.3,0 ,,0 ,21.8,0 ,23,0 ,9.1,0 ,,
2002/12/3,11:10:00,24.4,0 ,,0 ,21.8,0 ,23.1,0 ,9.2,0 ,,
2002/12/3,11:20:00,24.5,0 ,,0 ,21.9,0 ,23.2,0 ,9.3,0 ,,
2002/12/3,11:30:00,24.6,0 ,,0 ,21.9,0 ,23.3,0 ,9.4,0 ,,
2002/12/3,11:40:00,24.7,0 ,,0 ,22,0 ,23.3,0 ,9.4,0 ,,
2002/12/3,11:50:00,24.7,0 ,,0 ,22,0 ,23.4,0 ,8.3,0 ,,
2002/12/3,12:00:00,24.8,0 ,,0 ,22.1,0 ,23.5,0 ,8.3,0 ,,
2002/12/3,12:10:00,24.9,0 ,,0 ,22.1,0 ,23.7,0 ,8.4,0 ,,
2002/12/3,12:20:00,25.1,0 ,,0 ,22.2,0 ,23.8,0 ,8.5,0 ,,
2002/12/3,12:30:00,25.2,0 ,,0 ,22.2,0 ,24,0 ,8.6,0 ,,
2002/12/3,12:40:00,25.3,0 ,,0 ,22.3,0 ,24.1,0 ,8.7,0 ,,
2002/12/3,12:50:00,25.5,0 ,,0 ,22.4,0 ,24.2,0 ,8.5,0 ,,
2002/12/3,13:00:00,25.5,0 ,,0 ,22.5,0 ,24.4,0 ,8.5,0 ,,
2002/12/3,13:10:00,25.6,0 ,,0 ,22.5,0 ,24.4,0 ,8.5,0 ,,
2002/12/3,13:20:00,25.5,0 ,,0 ,22.6,0 ,24.5,0 ,8.6,0 ,,
2002/12/3,13:30:00,25.5,0 ,,0 ,22.6,0 ,24.5,0 ,8.7,0 ,,
2002/12/3,13:40:00,25.4,0 ,,0 ,22.7,0 ,24.6,0 ,8.8,0 ,,
2002/12/3,13:50:00,25.3,0 ,,0 ,22.7,0 ,24.5,0 ,8.9,0 ,,
2002/12/3,14:00:00,25.2,0 ,,0 ,22.7,0 ,24.5,0 ,9,0 ,,
2002/12/3,14:10:00,25.1,0 ,,0 ,22.7,0 ,24.6,0 ,8.2,0 ,,
2002/12/3,14:20:00,25.1,0 ,,0 ,22.8,0 ,24.5,0 ,8.1,0 ,,
2002/12/3,14:30:00,25,0 ,,0 ,22.8,0 ,24.5,0 ,7.8,0 ,,
2002/12/3,14:40:00,25,0 ,,0 ,22.8,0 ,24.5,0 ,7.9,0 ,,
2002/12/3,14:50:00,25,0 ,,0 ,22.8,0 ,24.5,0 ,8,0 ,,
2002/12/3,15:00:00,25.1,0 ,,0 ,22.8,0 ,24.5,0 ,8.1,0 ,,
2002/12/3,15:10:00,25.2,0 ,,0 ,22.8,0 ,24.5,0 ,8.2,0 ,,
2002/12/3,15:20:00,25.2,0 ,,0 ,22.8,0 ,24.4,0 ,8.3,0 ,,
2002/12/3,15:30:00,25,0 ,,0 ,22.8,0 ,24.3,0 ,8.4,0 ,,
2002/12/3,15:40:00,24.8,0 ,,0 ,22.8,0 ,24.1,0 ,8.5,0 ,,
2002/12/3,15:50:00,24.7,0 ,,0 ,22.8,0 ,23.9,0 ,8.6,0 ,,
2002/12/3,16:00:00,24.5,0 ,,0 ,22.8,0 ,23.9,0 ,8.7,0 ,,
2002/12/3,16:10:00,24.5,0 ,,0 ,22.7,0 ,23.9,0 ,8.8,0 ,,
2002/12/3,16:20:00,24.3,0 ,,0 ,22.7,0 ,23.8,0 ,8.9,0 ,,
2002/12/3,16:30:00,24.1,0 ,,0 ,22.6,0 ,23.7,0 ,9,0 ,,
2002/12/3,16:40:00,23.9,0 ,,0 ,22.6,0 ,23.6,0 ,8.1,0 ,,
2002/12/3,16:50:00,23.7,0 ,,0 ,22.5,0 ,23.5,0 ,8.2,0 ,,
2002/12/3,17:00:00,23.5,0 ,,0 ,22.5,0 ,23.4,0 ,8.2,0 ,,
2002/12/3,17:10:00,23.3,0 ,,0 ,22.4,0 ,23.3,0 ,8.3,0 ,,
2002/12/3,17:20:00,23.2,0 ,,0 ,22.4,0 ,23.2,0 ,8.4,0 ,,
2002/12/3,17:30:00,23.1,0 ,,0 ,22.3,0 ,23.1,0 ,8.5,0 ,,
2002/12/3,17:40:00,22.9,0 ,,0 ,22.2,0 ,23,0 ,8.6,0 ,,
2002/12/3,17:50:00,22.8,0 ,,0 ,22.2,0 ,22.9,0 ,8.7,0 ,,
2002/12/3,18:00:00,22.7,0 ,,0 ,22.1,0 ,22.8,0 ,8.8,0 ,,
2002/12/3,18:10:00,22.6,0 ,,0 ,22,0 ,22.7,0 ,8.9,0 ,,
2002/12/3,18:20:00,22.6,0 ,,0 ,22,0 ,22.7,0 ,9,0 ,,
2002/12/3,18:30:00,22.9,0 ,,0 ,21.9,0 ,22.7,0 ,8.8,0 ,,
2002/12/3,18:40:00,23.2,0 ,,0 ,21.9,0 ,22.8,0 ,8.3,0 ,,
2002/12/3,18:50:00,23.4,0 ,,0 ,21.9,0 ,22.8,0 ,8.3,0 ,,
2002/12/3,19:00:00,23.5,0 ,,0 ,21.9,0 ,22.8,0 ,8,0 ,,
2002/12/3,19:10:00,23.6,0 ,,0 ,21.9,0 ,22.8,0 ,8,0 ,,
2002/12/3,19:20:00,23.7,0 ,,0 ,22,0 ,22.8,0 ,8.1,0 ,,
2002/12/3,19:30:00,23.7,0 ,,0 ,22,0 ,22.8,0 ,8.2,0 ,,
2002/12/3,19:40:00,23.8,0 ,,0 ,22,0 ,22.9,0 ,8.3,0 ,,
2002/12/3,19:50:00,23.8,0 ,,0 ,22,0 ,22.9,0 ,8.4,0 ,,
2002/12/3,20:00:00,23.8,0 ,,0 ,22,0 ,22.9,0 ,8.5,0 ,,
2002/12/3,20:10:00,23.8,0 ,,0 ,22,0 ,22.9,0 ,8.6,0 ,,
2002/12/3,20:20:00,23.9,0 ,,0 ,22,0 ,22.9,0 ,8.7,0 ,,
2002/12/3,20:30:00,23.9,0 ,,0 ,22.1,0 ,22.8,0 ,8.8,0 ,,
2002/12/3,20:40:00,23.9,0 ,,0 ,22.1,0 ,22.8,0 ,8.9,0 ,,
2002/12/3,20:50:00,23.9,0 ,,0 ,22.1,0 ,22.8,0 ,9,0 ,,
2002/12/3,21:00:00,23.9,0 ,,0 ,22.1,0 ,22.8,0 ,9.1,0 ,,
2002/12/3,21:10:00,23.9,0 ,,0 ,22.2,0 ,22.8,0 ,9.2,0 ,,
2002/12/3,21:20:00,23.9,0 ,,0 ,22.2,0 ,22.8,0 ,9.3,0 ,,
2002/12/3,21:30:00,23.9,0 ,,0 ,22.3,0 ,22.8,0 ,9.4,0 ,,
2002/12/3,21:40:00,23.9,0 ,,0 ,22.3,0 ,22.8,0 ,9.5,0 ,,
2002/12/3,21:50:00,23.9,0 ,,0 ,22.4,0 ,22.8,0 ,9.6,0 ,,
2002/12/3,22:00:00,23.9,0 ,,0 ,22.4,0 ,22.8,0 ,9.7,0 ,,
2002/12/3,22:10:00,24,0 ,,0 ,22.4,0 ,22.8,0 ,9.8,0 ,,
2002/12/3,22:20:00,24,0 ,,0 ,22.4,0 ,22.9,0 ,9.8,0 ,,
2002/12/3,22:30:00,24,0 ,,0 ,22.4,0 ,22.9,0 ,9.9,0 ,,
2002/12/3,22:40:00,24,0 ,,0 ,22.4,0 ,22.9,0 ,10,0 ,,
2002/12/3,22:50:00,24,0 ,,0 ,22.4,0 ,22.9,0 ,10.2,0 ,,
2002/12/3,23:00:00,24,0 ,,0 ,22.4,0 ,22.9,0 ,10.3,0 ,,
2002/12/3,23:10:00,24,0 ,,0 ,22.4,0 ,22.9,0 ,10.4,0 ,,
2002/12/3,23:20:00,24,0 ,,0 ,22.4,0 ,22.9,0 ,10.5,0 ,,
2002/12/3,23:30:00,24,0 ,,0 ,22.4,0 ,23,0 ,10.6,0 ,,